| time (UTC) | temp F | wind direction | speed MPH | gust MPH | rain 1hr in | rain 24hr in | rain mn in | humidity % | barometer mb |
| 20260831082003 | 64 | 152 | 1.0 | 2.0 | 0.00 | 0.00 | 0.00 | 92 | 1019.8 |
| 20260831081003 | 64 | 135 | 1.0 | 2.0 | 0.00 | 0.00 | 0.00 | 92 | 1019.8 |
| 20260831080003 | 63 | 161 | 1.0 | 4.0 | 0.00 | 0.00 | 0.00 | 92 | 1019.7 |
| 20260831075003 | 63 | 151 | 1.0 | 3.0 | 0.00 | 0.00 | 0.00 | 92 | 1019.8 |
| 20260831074215 | 63 | 159 | 1.0 | 3.0 | 0.00 | 0.00 | 0.00 | 92 | 1019.7 |
| 20260831073004 | 63 | 157 | 0.0 | 3.0 | 0.00 | 0.00 | 0.00 | 91 | 1019.7 |
| 20260831072003 | 63 | 170 | 0.0 | 2.0 | 0.00 | 0.00 | 0.00 | 91 | 1019.8 |
| 20260831071213 | 64 | 151 | 1.0 | 3.0 | 0.00 | 0.00 | 0.00 | 91 | 1019.7 |
| 20260831070003 | 64 | 154 | 1.0 | 2.0 | 0.00 | 0.00 | 0.00 | 90 | 1019.8 |
| 20260831065215 | 64 | 171 | 1.0 | 2.0 | 0.00 | 0.00 | 0.00 | 90 | 1019.9 |
| 20260831064003 | 65 | 151 | 1.0 | 3.0 | 0.00 | 0.00 | 0.00 | 90 | 1019.6 |
| 20260831063215 | 65 | 154 | 1.0 | 3.0 | 0.00 | 0.00 | 0.00 | 91 | 1019.8 |
| 20260831062006 | 65 | 184 | 1.0 | 2.0 | 0.00 | 0.00 | 0.00 | 91 | 1019.9 |
| 20260831061004 | 65 | 142 | 1.0 | 2.0 | 0.00 | 0.00 | 0.00 | 91 | 1019.9 |
| 20260831060004 | 65 | 159 | 1.0 | 3.0 | 0.00 | 0.00 | 0.00 | 91 | 1019.9 |
| 20260831055004 | 65 | 169 | 1.0 | 3.0 | 0.00 | 0.00 | 0.00 | 91 | 1020.0 |
| 20260831054005 | 64 | 166 | 1.0 | 4.0 | 0.00 | 0.00 | 0.00 | 92 | 1020.3 |
| 20260831053005 | 64 | 0 | 0.0 | 1.0 | 0.00 | 0.00 | 0.00 | 92 | 1020.3 |
| 20260831052005 | 64 | 149 | 1.0 | 2.0 | 0.00 | 0.00 | 0.00 | 92 | 1020.5 |
| 20260831051005 | 64 | 154 | 0.0 | 3.0 | 0.00 | 0.00 | 0.00 | 92 | 1020.5 |
| 20260831050004 | 63 | 150 | 1.0 | 2.0 | 0.00 | 0.00 | 0.00 | 91 | 1020.4 |
| 20260831045214 | 63 | 154 | 0.0 | 2.0 | 0.00 | 0.00 | 0.00 | 91 | 1020.5 |
| 20260831044004 | 64 | 139 | 1.0 | 3.0 | 0.00 | 0.00 | 0.00 | 90 | 1020.4 |
| 20260831043004 | 64 | 177 | 0.0 | 4.0 | 0.00 | 0.00 | 0.00 | 88 | 1020.3 |
| 20260831042003 | 64 | 172 | 1.0 | 4.0 | 0.00 | 0.00 | 0.00 | 88 | 1020.3 |
| 20260831041007 | 65 | 135 | 1.0 | 2.0 | 0.00 | 0.00 | 0.00 | 88 | 1020.3 |
| 20260831040008 | 65 | 161 | 1.0 | 6.0 | 0.00 | 0.00 | 0.00 | 87 | 1020.2 |
| 20260831035004 | 66 | 201 | 2.0 | 9.0 | 0.00 | 0.00 | 0.00 | 87 | 1020.5 |
| 20260831034003 | 66 | 243 | 2.0 | 7.0 | 0.00 | 0.00 | 0.00 | 87 | 1020.1 |
| 20260831033003 | 66 | 202 | 2.0 | 6.0 | 0.00 | 0.00 | 0.00 | 88 | 1020.2 |
| 20260831032005 | 66 | 231 | 2.0 | 5.0 | 0.00 | 0.00 | 0.00 | 88 | 1020.1 |
| 20260831031005 | 66 | 190 | 2.0 | 5.0 | 0.00 | 0.00 | 0.00 | 88 | 1020.1 |
| 20260831030004 | 66 | 211 | 2.0 | 7.0 | 0.00 | 0.00 | 0.00 | 88 | 1020.3 |
| 20260831025003 | 66 | 271 | 1.0 | 4.0 | 0.00 | 0.00 | 0.00 | 87 | 1020.2 |
| 20260831024003 | 66 | 217 | 2.0 | 6.0 | 0.00 | 0.00 | 0.00 | 87 | 1020.2 |
| 20260831023003 | 66 | 216 | 2.0 | 5.0 | 0.00 | 0.00 | 0.00 | 88 | 1020.2 |
| 20260831022215 | 67 | 201 | 2.0 | 7.0 | 0.00 | 0.00 | 0.00 | 89 | 1020.0 |
| 20260831021007 | 67 | 225 | 2.0 | 6.0 | 0.00 | 0.00 | 0.00 | 89 | 1020.1 |
| 20260831020004 | 67 | 236 | 1.0 | 5.0 | 0.00 | 0.00 | 0.00 | 89 | 1020.2 |
| 20260831015213 | 67 | 228 | 2.0 | 8.0 | 0.00 | 0.00 | 0.00 | 90 | 1020.1 |
| 20260831014003 | 67 | 188 | 2.0 | 7.0 | 0.00 | 0.00 | 0.00 | 90 | 1020.2 |
| 20260831013003 | 67 | 199 | 2.0 | 7.0 | 0.00 | 0.00 | 0.00 | 91 | 1020.4 |
| 20260831012003 | 67 | 247 | 2.0 | 7.0 | 0.00 | 0.00 | 0.00 | 92 | 1020.2 |
| 20260831011004 | 67 | 234 | 2.0 | 9.0 | 0.00 | 0.00 | 0.00 | 92 | 1020.2 |
| 20260831010003 | 67 | 233 | 1.0 | 4.0 | 0.00 | 0.00 | 0.00 | 92 | 1020.2 |
| 20260831005003 | 67 | 222 | 1.0 | 4.0 | 0.00 | 0.00 | 0.00 | 92 | 1020.2 |
| 20260831004006 | 67 | 237 | 1.0 | 4.0 | 0.00 | 0.00 | 0.00 | 92 | 1020.0 |
| 20260831003003 | 67 | 259 | 1.0 | 4.0 | 0.00 | 0.00 | 0.00 | 91 | 1019.8 |
| 20260831002003 | 67 | 279 | 2.0 | 6.0 | 0.00 | 0.00 | 0.00 | 91 | 1019.6 |
| 20260831001004 | 67 | 230 | 2.0 | 4.0 | 0.00 | 0.00 | 0.00 | 91 | 1019.4 |
| 20260831000003 | 67 | 269 | 1.0 | 6.0 | 0.00 | 0.00 | 0.00 | 91 | 1019.2 |
| 20260830235005 | 67 | 197 | 1.0 | 5.0 | 0.00 | 0.00 | 0.00 | 91 | 1019.2 |
| 20260830234003 | 67 | 183 | 1.0 | 4.0 | 0.00 | 0.00 | 0.00 | 91 | 1019.2 |
| 20260830233003 | 67 | 261 | 2.0 | 7.0 | 0.00 | 0.00 | 0.00 | 90 | 1019.1 |
| 20260830232005 | 67 | 257 | 3.0 | 8.0 | 0.00 | 0.00 | 0.00 | 90 | 1019.0 |
| 20260830231216 | 67 | 253 | 3.0 | 6.0 | 0.00 | 0.00 | 0.00 | 91 | 1019.1 |
| 20260830230004 | 67 | 233 | 2.0 | 9.0 | 0.00 | 0.00 | 0.00 | 91 | 1019.0 |
| 20260830225006 | 67 | 348 | 3.0 | 9.0 | 0.00 | 0.00 | 0.00 | 91 | 1019.1 |
| 20260830224004 | 67 | 256 | 2.0 | 7.0 | 0.00 | 0.00 | 0.00 | 90 | 1019.0 |
| 20260830223214 | 67 | 245 | 2.0 | 8.0 | 0.00 | 0.00 | 0.00 | 90 | 1019.1 |
| 20260830222004 | 67 | 275 | 2.0 | 5.0 | 0.00 | 0.00 | 0.00 | 90 | 1018.9 |
| 20260830221005 | 67 | 225 | 2.0 | 3.0 | 0.00 | 0.00 | 0.00 | 90 | 1019.1 |
| 20260830220004 | 67 | 244 | 1.0 | 4.0 | 0.00 | 0.00 | 0.00 | 91 | 1019.1 |
| 20260830215005 | 67 | 265 | 1.0 | 4.0 | 0.00 | 0.00 | 0.00 | 90 | 1019.2 |
| 20260830214214 | 67 | 281 | 1.0 | 5.0 | 0.00 | 0.00 | 0.00 | 90 | 1019.0 |
| 20260830213216 | 67 | 294 | 1.0 | 4.0 | 0.00 | 0.00 | 0.00 | 90 | 1019.0 |
| 20260830212005 | 67 | 232 | 2.0 | 8.0 | 0.00 | 0.00 | 0.00 | 90 | 1019.2 |
| 20260830211005 | 67 | 233 | 1.0 | 4.0 | 0.00 | 0.00 | 0.00 | 90 | 1019.2 |
| 20260830210005 | 67 | 203 | 1.0 | 5.0 | 0.00 | 0.00 | 0.00 | 90 | 1019.0 |
| 20260830205003 | 67 | 233 | 0.0 | 5.0 | 0.00 | 0.00 | 0.00 | 91 | 1019.2 |
| 20260830204003 | 67 | 234 | 1.0 | 3.0 | 0.00 | 0.00 | 0.00 | 91 | 1019.1 |
| 20260830203003 | 67 | 235 | 0.0 | 3.0 | 0.00 | 0.00 | 0.00 | 91 | 1019.1 |
| 20260830202005 | 67 | 220 | 1.0 | 4.0 | 0.00 | 0.00 | 0.00 | 90 | 1019.2 |
| 20260830201006 | 67 | 359 | 2.0 | 3.0 | 0.00 | 0.00 | 0.00 | 89 | 1019.3 |
| 20260830200005 | 67 | 282 | 0.0 | 3.0 | 0.00 | 0.00 | 0.00 | 90 | 1019.4 |
| 20260830195004 | 67 | 337 | 0.0 | 2.0 | 0.00 | 0.00 | 0.00 | 90 | 1019.3 |
| 20260830194003 | 67 | 301 | 0.0 | 3.0 | 0.00 | 0.00 | 0.00 | 90 | 1019.3 |
| 20260830193213 | 67 | 360 | 0.0 | 3.0 | 0.00 | 0.00 | 0.00 | 90 | 1019.4 |
| 20260830192005 | 67 | 279 | 1.0 | 3.0 | 0.00 | 0.00 | 0.00 | 89 | 1019.5 |
| 20260830191004 | 67 | 284 | 1.0 | 4.0 | 0.00 | 0.00 | 0.00 | 87 | 1019.8 |
| 20260830190003 | 68 | 281 | 2.0 | 8.0 | 0.00 | 0.00 | 0.00 | 86 | 1019.9 |
| 20260830185003 | 68 | 319 | 2.0 | 6.0 | 0.00 | 0.00 | 0.00 | 83 | 1020.1 |
| 20260830184214 | 69 | 332 | 2.0 | 7.0 | 0.00 | 0.00 | 0.00 | 81 | 1020.1 |
| 20260830183004 | 69 | 305 | 2.0 | 7.0 | 0.00 | 0.00 | 0.00 | 77 | 1020.0 |
| 20260830182003 | 70 | 308 | 2.0 | 7.0 | 0.00 | 0.00 | 0.00 | 75 | 1020.1 |
| 20260830181004 | 70 | 27 | 3.0 | 10.0 | 0.00 | 0.00 | 0.00 | 73 | 1020.0 |
| 20260830180003 | 71 | 258 | 3.0 | 10.0 | 0.00 | 0.00 | 0.00 | 69 | 1019.9 |
| 20260830175003 | 72 | 271 | 2.0 | 7.0 | 0.00 | 0.00 | 0.00 | 64 | 1019.7 |
| 20260830174003 | 72 | 309 | 2.0 | 7.0 | 0.00 | 0.00 | 0.00 | 63 | 1019.6 |
| 20260830173003 | 73 | 352 | 2.0 | 8.0 | 0.00 | 0.00 | 0.00 | 62 | 1019.6 |
| 20260830172004 | 73 | 281 | 2.0 | 8.0 | 0.00 | 0.00 | 0.00 | 63 | 1019.7 |
| 20260830171004 | 73 | 267 | 2.0 | 6.0 | 0.00 | 0.00 | 0.00 | 62 | 1019.6 |
| 20260830170004 | 73 | 255 | 2.0 | 9.0 | 0.00 | 0.00 | 0.00 | 61 | 1019.5 |
| 20260830165007 | 74 | 288 | 2.0 | 9.0 | 0.00 | 0.00 | 0.00 | 60 | 1019.5 |
| 20260830164003 | 74 | 260 | 3.0 | 9.0 | 0.00 | 0.00 | 0.00 | 59 | 1019.5 |
| 20260830163003 | 74 | 223 | 2.0 | 7.0 | 0.00 | 0.00 | 0.00 | 61 | 1019.7 |
| 20260830162004 | 74 | 262 | 2.0 | 9.0 | 0.00 | 0.00 | 0.00 | 60 | 1019.6 |
| 20260830161004 | 73 | 317 | 2.0 | 6.0 | 0.00 | 0.00 | 0.00 | 61 | 1019.7 |
| 20260830160004 | 73 | 236 | 3.0 | 8.0 | 0.00 | 0.00 | 0.00 | 60 | 1019.7 |
| 20260830155215 | 73 | 246 | 3.0 | 9.0 | 0.00 | 0.00 | 0.00 | 60 | 1019.7 |
| 20260830154004 | 73 | 204 | 2.0 | 6.0 | 0.00 | 0.00 | 0.00 | 60 | 1019.7 |
| 20260830153006 | 73 | 183 | 2.0 | 7.0 | 0.00 | 0.00 | 0.00 | 59 | 1019.7 |
| 20260830152004 | 73 | 221 | 3.0 | 7.0 | 0.00 | 0.00 | 0.00 | 60 | 1019.8 |
| 20260830151215 | 73 | 210 | 2.0 | 7.0 | 0.00 | 0.00 | 0.00 | 60 | 1020.0 |
| 20260830150004 | 73 | 209 | 2.0 | 6.0 | 0.00 | 0.00 | 0.00 | 60 | 1019.8 |
| 20260830145004 | 73 | 226 | 1.0 | 8.0 | 0.00 | 0.00 | 0.00 | 60 | 1019.5 |
| 20260830144003 | 73 | 239 | 2.0 | 7.0 | 0.00 | 0.00 | 0.00 | 60 | 1019.5 |
| 20260830143004 | 73 | 232 | 2.0 | 8.0 | 0.00 | 0.00 | 0.00 | 60 | 1019.5 |
| 20260830142005 | 72 | 174 | 0.0 | 4.0 | 0.00 | 0.00 | 0.00 | 60 | 1019.5 |
| 20260830141215 | 72 | 194 | 1.0 | 4.0 | 0.00 | 0.00 | 0.00 | 60 | 1019.2 |
| 20260830140004 | 72 | 171 | 1.0 | 4.0 | 0.00 | 0.00 | 0.00 | 62 | 1019.4 |
| 20260830135005 | 71 | 175 | 2.0 | 6.0 | 0.00 | 0.00 | 0.00 | 62 | 1019.4 |
| 20260830134003 | 71 | 152 | 2.0 | 6.0 | 0.00 | 0.00 | 0.00 | 62 | 1019.3 |
| 20260830133003 | 71 | 151 | 3.0 | 10.0 | 0.00 | 0.00 | 0.00 | 61 | 1019.3 |
| 20260830132003 | 71 | 194 | 2.0 | 9.0 | 0.00 | 0.00 | 0.00 | 61 | 1019.4 |
| 20260830131003 | 71 | 224 | 2.0 | 8.0 | 0.00 | 0.00 | 0.00 | 61 | 1019.4 |
| 20260830130004 | 71 | 221 | 2.0 | 8.0 | 0.00 | 0.00 | 0.00 | 61 | 1019.3 |
| 20260830125005 | 70 | 143 | 2.0 | 7.0 | 0.00 | 0.00 | 0.00 | 61 | 1019.4 |
| 20260830124005 | 70 | 147 | 1.0 | 5.0 | 0.00 | 0.00 | 0.00 | 61 | 1019.4 |
| 20260830123004 | 70 | 175 | 2.0 | 7.0 | 0.00 | 0.00 | 0.00 | 61 | 1019.7 |
| 20260830122004 | 70 | 184 | 2.0 | 6.0 | 0.00 | 0.00 | 0.00 | 61 | 1019.7 |
| 20260830121003 | 70 | 91 | 3.0 | 9.0 | 0.00 | 0.00 | 0.00 | 60 | 1019.7 |
| 20260830120004 | 70 | 180 | 3.0 | 7.0 | 0.00 | 0.00 | 0.00 | 61 | 1019.6 |
| 20260830115004 | 69 | 154 | 3.0 | 7.0 | 0.00 | 0.00 | 0.00 | 61 | 1019.5 |
| 20260830114214 | 69 | 158 | 3.0 | 6.0 | 0.00 | 0.00 | 0.00 | 61 | 1019.5 |
| 20260830113006 | 69 | 158 | 2.0 | 7.0 | 0.00 | 0.00 | 0.00 | 60 | 1019.6 |
| 20260830112003 | 69 | 160 | 3.0 | 8.0 | 0.00 | 0.00 | 0.00 | 60 | 1019.5 |
| 20260830111003 | 69 | 171 | 2.0 | 7.0 | 0.00 | 0.00 | 0.00 | 60 | 1019.5 |
| 20260830110004 | 69 | 152 | 3.0 | 6.0 | 0.00 | 0.00 | 0.00 | 60 | 1019.7 |
| 20260830105213 | 69 | 161 | 2.0 | 6.0 | 0.00 | 0.00 | 0.00 | 60 | 1019.8 |
| 20260830104003 | 69 | 215 | 2.0 | 7.0 | 0.00 | 0.00 | 0.00 | 60 | 1019.8 |
| 20260830103003 | 68 | 161 | 3.0 | 8.0 | 0.00 | 0.00 | 0.00 | 60 | 1019.7 |
| 20260830102004 | 69 | 146 | 3.0 | 8.0 | 0.00 | 0.00 | 0.00 | 61 | 1019.7 |
| 20260830101004 | 69 | 138 | 1.0 | 4.0 | 0.00 | 0.00 | 0.00 | 60 | 1019.9 |
| 20260830100213 | 69 | 150 | 2.0 | 10.0 | 0.00 | 0.00 | 0.00 | 60 | 1019.9 |
| 20260830095003 | 69 | 170 | 2.0 | 6.0 | 0.00 | 0.00 | 0.00 | 60 | 1019.9 |
| 20260830094004 | 69 | 167 | 2.0 | 7.0 | 0.00 | 0.00 | 0.00 | 60 | 1020.0 |
| 20260830093003 | 69 | 154 | 2.0 | 5.0 | 0.00 | 0.00 | 0.00 | 61 | 1020.0 |
| 20260830092005 | 69 | 161 | 2.0 | 6.0 | 0.00 | 0.00 | 0.00 | 61 | 1020.1 |
| 20260830091004 | 69 | 187 | 2.0 | 6.0 | 0.00 | 0.00 | 0.00 | 61 | 1020.2 |
| 20260830090215 | 69 | 172 | 3.0 | 9.0 | 0.00 | 0.00 | 0.00 | 61 | 1020.1 |
| 20260830085005 | 69 | 157 | 2.0 | 5.0 | 0.00 | 0.00 | 0.00 | 61 | 1020.2 |
| 20260830084004 | 69 | 162 | 3.0 | 8.0 | 0.00 | 0.00 | 0.00 | 61 | 1020.2 |
| 20260830083005 | 69 | 150 | 2.0 | 5.0 | 0.00 | 0.00 | 0.00 | 62 | 1020.3 |